www.pogodaiklimat.ru

Архив погоды в Марково (Чукотка, Россия)

Время
(UTC), дата
21 24.11
00 25.11
03 25.11
06 25.11
09 25.11
12 25.11
15 25.11
18 25.11
21 25.11
00 26.11
03 26.11
06 26.11
09 26.11
12 26.11
15 26.11
18 26.11
21 26.11
00 27.11
03 27.11
06 27.11
09 27.11
12 27.11
15 27.11
18 27.11
21 27.11
00 28.11
03 28.11
06 28.11
09 28.11
12 28.11
15 28.11
18 28.11
21 28.11
00 29.11
03 29.11
06 29.11
09 29.11
12 29.11
15 29.11
18 29.11
21 29.11
00 30.11
03 30.11
06 30.11
09 30.11
12 30.11
15 30.11
18 30.11
21 30.11
00 1.12
03 1.12
06 1.12
09 1.12
12 1.12
15 1.12
18 1.12
Ветер
(напр.,м/с)
Видим. Явления Облачность Т
(С)
Тd
(С)
f
(%)
Тe
(С)
Тes
(С)
Комфортность P
(гПа)
Po
(гПа)
Тmin
(С)
Tmax
(С)
R
(мм)
R24
(мм)
S
(см)
штиль 0
{1}
20 км 5/0
[Ci fib]
-35.8 -40.0 65 -36 -36 опасность
обморожения
1025.7 1022.2 -35.8
штиль 0
{1}
50 км 9/0
[Ci fib]
-31.7 -35.4 70 -32 -32 опасность
обморожения
1024.5 1020.7
С 1
{1}
50 км 10/0
[Ac trans Cs]
-31.0 -34.7 70 -35 -35 опасность
обморожения
1022.4 1019.0
С 1
{2}
20 км 8/0
[Ac trans Ci fib]
-31.7 -35.4 70 -36 -36 опасность
обморожения
1022.1 1018.7 -30.2
СЗ 1
{3}
20 км 10/0
[Ac trans Cs]
-30.2 -33.2 75 -34 -34 опасность
обморожения
1021.6 1018.2
С 2
{3}
10 км снежные кристаллы 10/0
[Ac trans Cs]
-28.2 -31.3 75 -35 -35 опасность
обморожения
1021.9 1018.5
С 2
{4}
10 км снежные кристаллы 10/0
[Ac trans Cs]
-26.8 -30.0 74 -34 -34 опасность
обморожения
1021.6 1018.3
С 2
{5}
4000 м слаб. снег 10/0
[Ac trans Cs]
-25.6 -28.8 74 -32 -32 опасность
обморожения
1022.9 1019.5 -31.7 0.0 25
С 3
{7}
4000 м слаб. снег {метель} 10/0
[Ac trans Cs]
-24.5 -27.7 75 -33 -33 опасность
обморожения
1023.9 1020.5
С 3
{7}
50 км {снег, метель} 9/0
[Ac trans Cs]
-24.6 -27.7 75 -33 -33 опасность
обморожения
1024.8 1021.4
С 3
{7}
50 км {метель} 8/0
[Ac trans Ci fib]
-24.6 -27.7 75 -33 -33 опасность
обморожения
1025.0 1021.6
С 4
{7}
20 км позёмок {метель} 6/0
[Ac trans Ci fib]
-24.8 -28.0 75 -35 -35 опасность
обморожения
1025.8 1022.4 -23.9 0.3
С 4
{8}
20 км позёмок {метель} 3/0
[Ci fib]
-25.8 -28.9 75 -36 -36 опасность
обморожения
1026.4 1023.0
С 4
{8}
20 км позёмок {метель} 3/0
[Ci fib]
-25.8 -28.9 75 -36 -36 опасность
обморожения
1026.4 1023.0
С 4
{8}
20 км позёмок {метель} ясно -26.0 -29.1 75 -36 -36 опасность
обморожения
1026.6 1023.2
С 3
{8}
20 км {метель} 3/0
[Ci fib]
-26.5 -29.7 74 -35 -35 опасность
обморожения
1027.4 1024.0 -26.5 25
С 3
{6}
20 км 3/0
[Ci fib]
-27.0 -30.1 75 -36 -36 опасность
обморожения
1027.5 1024.1 -27.1
СВ 3
{8}
50 км позёмок {метель} 10/0
[Ac trans Cs]
-24.9 -28.8 70 -33 -33 опасность
обморожения
1027.6 1024.2
С 3
{9}
50 км позёмок {метель} 10/0
[Ac trans Cs]
-25.6 -29.5 70 -34 -34 опасность
обморожения
1027.1 1023.7
С 3
{8}
20 км позёмок {метель} 10/0
[Ac trans Cs]
-25.0 -28.8 71 -34 -34 опасность
обморожения
1026.7 1023.3 -24.9
С 4
{8}
20 км позёмок {метель} 10/0
[Ac trans Cs]
-24.5 -27.7 75 -34 -34 опасность
обморожения
1026.7 1023.3
С 4
{8}
4000 м слаб. снег {метель} 10/3 1000 м
[Sc As op]
-23.9 -27.1 75 -34 -34 опасность
обморожения
1025.8 1022.4
С 3
{7}
4000 м слаб. снег {метель} 10/3 600 м
[Sc As op]
-22.3 -24.8 80 -30 -30 1024.4 1021.1
С 3
{7}
4000 м слаб. снег {метель} 10/4 1000 м
[Sc As op]
-21.4 -23.9 80 -29 -29 1023.2 1019.9 -25.0 1 25
С 3
{8}
4000 м слаб. снег {метель} 10/3 600 м
[Sc As op]
-20.9 -23.4 80 -29 -29 1022.2 1018.9
С 4
{8}
4000 м слаб. снег {метель} 10/3 1000 м
[Sc Ac trans Cs]
-20.0 -22.6 80 -29 -29 1021.1 1017.8
С 2
{7}
50 км {снег, метель} 10/0
[Ac trans Cs]
-20.8 -23.3 80 -27 -27 1019.7 1016.4
С 3
{6}
4000 м слаб. снег {метель} 10/3 1000 м
[Sc Ac trans Cs]
-19.9 -22.5 80 -27 -27 1019.2 1015.9 -19.8 2
С 2
{6}
10 км снежные кристаллы 10/3 600 м
[Sc Ac As]
-19.3 -21.9 80 -25 -25 1018.8 1015.5
С 2
{5}
10 км снежные кристаллы 10/3 600 м
[Sc Ac trans Cs]
-18.8 -21.4 80 -24 -24 1018.1 1014.8
С 1
{3}
10 км снежные кристаллы 10/3 1000 м
[Sc Ac trans Cs]
-18.8 -21.4 80 -22 -22 1017.3 1014.0
СЗ 1
{3}
10 км снежные кристаллы 8/0
[Ac trans Cs]
-19.9 -21.8 85 -23 -23 1016.6 1013.3 -19.9 0.0 26
З 1
{2}
20 км {снег} 6/0
[Ac trans Ci fib]
-26.4 -29.5 75 -30 -30 1016.6 1013.3 -26.4
СЗ 1
{2}
50 км {снег} 8/0
[Ci fib]
-23.7 -26.1 81 -27 -27 1016.6 1013.3
З 1
{2}
50 км 6/0
[Ci fib]
-24.1 -26.6 80 -28 -28 1016.2 1012.9
штиль 0
{1}
20 км 3/0
[Ci fib]
-29.1 -32.2 74 -29 -29 1016.9 1013.5 -19.9 0.0
штиль 0
{1}
20 км 3/0
[Ci fib]
-30.6 -33.6 75 -31 -31 опасность
обморожения
1017.3 1013.9
штиль 0
{1}
500 м переохл. туман 8/0
[Ci fib]
-28.1 -31.1 75 -28 -28 1017.7 1014.3
ЮЗ 1
{1}
4000 м слаб. снег {туман} 10/5 300 м
[Frnb Ac As]
-25.0 -27.4 80 -29 -29 1017.8 1014.5
З 1
{2}
4000 м слаб. снег {туман} 10/5 300 м
[Frnb As op]
-24.3 -26.8 80 -28 -28 1017.7 1014.4 -31.2 0.0 26
штиль 0
{2}
2000 м дымка {снег} 10/10 300 м
[St]
-23.1 -25.5 81 -23 -23 1017.1 1013.8
штиль 0
{2}
4000 м слаб. снег 10/10 300 м
[St]
-21.4 -23.9 80 -21 -21 1016.1 1012.8
штиль 0
{1}
4000 м слаб. снег 10/6 300 м
[St As op]
-20.3 -22.2 85 -20 -20 1014.5 1011.2
СВ 1
{6}
4000 м снежные кристаллы 10/5 300 м
[St Ac As]
-19.5 -21.4 85 -22 -22 1013.3 1010.0 -19.5 0.0
С 2
{5}
10 км снежные кристаллы 10/3 600 м
[Sc Ac trans Cs]
-18.9 -20.8 85 -25 -25 1012.0 1008.8
СВ 3
{7}
10 км снежные кристаллы {метель} 10/3 600 м
[Sc Ac trans Cs]
-18.6 -20.3 86 -26 -26 1010.6 1007.4
С 3
{6}
10 км снежные кристаллы {метель} 10/3 600 м
[Sc Ac As]
-18.8 -20.7 85 -26 -26 1008.9 1005.7
С 3
{8}
4000 м слаб. снег {метель} 10/3 600 м
[Sc As op]
-18.2 -20.1 85 -25 -25 1007.6 1004.4 -19.5 0.0 26
С 4
{8}
2000 м снег {метель} 10/10 300 м
[Frnb Ns]
-17.5 -19.4 85 -26 -26 1007.2 1004.0
С 4
{8}
4000 м слаб. снег {метель} 10/8 300 м
[Frnb As op]
-17.4 -19.3 85 -26 -26 1007.5 1004.3
С 3
{7}
4000 м слаб. снег {метель} 10/6 300 м
[Frnb As op]
-17.2 -19.1 85 -24 -24 1008.3 1005.1
СЗ 3
{7}
4000 м слаб. снег {метель} 10/8 300 м
[Frnb As op]
-17.3 -19.2 85 -24 -24 1010.2 1007.0 -17.2 4
З 2
{6}
4000 м слаб. снег 10/4 300 м
[Frnb Ac trans Cs]
-18.8 -20.7 85 -24 -24 1012.6 1009.3
З 2
{4}
20 км {снег} 8/0
[Ac trans Cs]
-23.0 -25.5 80 -29 -29 1015.5 1012.2
З 2
{3}
20 км 4/0
[Ci fib]
-24.6 -27.0 80 -31 -31 опасность
обморожения
1017.4 1014.1
З 2
{3}
20 км 8/0
[Ci]
-27.0 -30.1 75 -34 -34 опасность
обморожения
1020.0 1016.7 -28.1 0.5 30
Местоположение метеостанции Марково (Чукотка, Россия): широта 64.68 долгота 170.40 высота над уровнем моря 26 м.
В архиве по умолчанию представлена погода в Марково за последнюю неделю. Архивные данные за месяц целиком и за предыдущие месяцы, начиная с января 2011 года, Вы можете получить, выбрав интересующий диапазон дат из раскрывающегося списка и нажав кнопку "Найти!".
*Определитесь, кто Вы:
Внимание! Время в таблицах - всемирное. Для получения местного времени необходимо прибавить поправку, которая равна 12 ч.
Смотрите также архив погоды в соседних городах и на ближайших метеорологических станциях:
Партнеры нашего сайта:      
Пояснения к столбцам:
  • Ветер - указаны скорость ветра в м/с - средняя за 10 мин, порывы в срок и между сроками (в фигурных скобках) и направление, откуда дует ветер: С - северный,
  • СВ - северо-восточный, В - восточный, ЮВ - юго-восточный, Ю - южный, ЮЗ - юго-западный, З - западный, СЗ - северо-западный.
  • Видимость - горизонтальная дальность видимости в метрах или километрах. При видимости от 1 до 10 км при отсутствии осадков обычно наблюдается дымка, при ухудшении видимости до 1 км и менее - туман. В сухую погоду видимость может ухудшаться дымом, пылью или мглою.
  • Явления - указаны атмосферные явления, наблюдавшиеся в срок или в последний час перед сроком; фигурными скобками обозначены явления, наблюдавшиеся между сроками (за 1-3 часа до срока); квадратными скобками обозначены град или гололедные отложения с указанием их диаметра в мм.
  • Облачность - указаны через наклонную черту общая и нижняя облачность в баллах и высота нижней границы облаков в метрах; квадратными скобками обозначены формы облаков: Ci - перистые, Cs - перисто-слоистые, Cc - перисто-кучевые, Ac - высококучевые, As - высокослоистые, Sc - слоисто-кучевые, Ns - слоисто-дождевые, Cu - кучевые, Cb - кучево-дождевые. Подробнее классификацию облаков см. в Атласе облаков (PDF).
  • T - Температура воздуха - температура, измеренная на высоте 2 м над землей.
  • Td - Температура точки росы - температура, при понижении до которой содержащийся в воздухе водяной пар достигнет насыщения.
  • f - Относительная влажность воздуха - влажноcть воздуха, измеренная на высоте 2 м над землей.
  • Te - Эффективная температура - температура, которую ощущает одетый по сезону человек в тени. Характеристика душности погоды. При расчете учитывается влияние влажности воздуха и скорости ветра на теплоощущения человека.
  • Tes - Эффективная температура на солнце - температура, которую ощущает человек, с поправкой на солнечный нагрев. Характеристика знойности погоды. Зависит от высоты солнца над горизонтом, облачности и скорости ветра. Ночью, в пасмурную погоду, а также при ветре 12 м/с и более поправка равна нулю.
  • P - Атмосферное давление - приведенное к уровню моря атмосферное давление.
  • Po - Атмосферное давление - измеренное на уровне метеостанции атмосферное давление.
  • Tmin - Минимальная температура - минимум температуры воздуха на высоте 2 м над землей.
  • Tmax - Максимальная температура - максимум температуры воздуха на высоте 2 м над землей.
  • R - Количество осадков - Количество выпавших осадков за период времени, мм. При наведении курсора мыши на число - период времени, за который выпало указанное количество осадков.
  • R24 - Количество осадков - Количество выпавших осадков за 24 часа, мм.
  • S - Снежный покров - Высота снежного покрова, см. При наведении курсора мыши на число - состояние снежного покрова и степень покрытия местности в баллах.